KUIPER-00496

导读

KUIPER-00496(NORAD编号69597)是美国亚马逊公司“柯伊伯计划”(Project Kuiper)低轨互联网星座的组网卫星,属于该项目2025年发射的全尺寸业务星批次。作为该星座规划的3232颗卫星之一,其部署于约630公里高度的低地球轨道,具备高带宽、低延迟通信能力,搭载升级后的相控阵天线、光学星间链路等系统,可向偏远乡村、海上等网络覆盖不足区域提供高速互联网接入服务,也可支撑航空机载通信、政企专网等场景需求。目前卫星在轨运行稳定,是亚马逊推进全球卫星互联网组网的重要节点。

Basic Information
目录编号:
69597
目录名称:
KUIPER-00496
国际标识:
2026-140F
轨道中心:
EARTH
卫星名称:
KUIPER-00496
卫星全名:
KUIPER-00496
卫星状态:
在轨 (已飞行70 天)
发射日期:
2026-06-17 UTC
国别 :
美国 (US)
星等 :
--
Orbit Information
数据来源 国际轨道数据
星历时间: 2026-08-26T09:18:01+0800
10小时前
查看轨道信息
半长轴: 6852.373km
偏心率: 0.0010677
轨道倾角: 51.877°
近地点辐角 188.288°
升交点赤经 62.953°
平近点角 171.793°
近地点: 466.919km
远地点: 481.553km
周期: 94.085分钟
每日圈数: 15.305282
Detailed Information
使用方式:
暂无
2D Orbit Map
3D Orbit Map
Orbit Altitude Analysis Chart
Orbit Inclination Analysis Chart
Orbit Comprehensive Analysis Chart
View Comprehensive Chart